Malmstrom AFB, MT

2:57 PM MDT on October 22, 2017 (GMT -0600)
Malmstrom AFB

Weather History for KGFA - August, 2014

Change the Weather History Date:

Tuesday, August 19, 2014

  Actual Average (KGTF) Record (KGTF)
Temperature  
Mean Temperature 72 °F -  
Max Temperature 87 °F 81 °F 97 °F (1967)
Min Temperature 57 °F 52 °F 40 °F (1973)
Cooling Degree Days 6    
Growing Degree Days 22 (Base 50)    
Moisture  
Dew Point 43 °F    
Average Humidity 38    
Maximum Humidity 68    
Minimum Humidity 17    
Precipitation  
Precipitation 0.00 in - - ()
Sea Level Pressure  
Sea Level Pressure 29.71 in    
Wind  
Wind Speed 7 mph (WSW)    
Max Wind Speed 15 mph    
Max Gust Speed 23 mph    
Visibility 10 miles    
Events Rain    
Averages and records for this station are not official NWS values.
T = Trace of Precipitation, MM = Missing Value Source: NWS Daily Summary

Daily Weather History Graph

Daily Weather History Graph

Search for Another Location

Airport or City:

Trip Planner

Search our weather history database for the weather conditions in past years. The results will help you decide how hot, cold, wet, or windy it might be!

Date:

Astronomy

Aug. 19, 2014 Rise Set
Actual Time 6:26 AM MDT 8:29 PM MDT
Civil Twilight 5:52 AM MDT 9:02 PM MDT
Nautical Twilight 5:11 AM MDT 9:43 PM MDT
Astronomical Twilight 4:25 AM MDT 10:29 PM MDT
Moon 1:13 AM MDT (8/19) 4:36 PM MDT (8/19)
Length of Visible Light 15h 09m
Length of Day
14h 03m
Waning Crescent, 28% of the Moon is Illuminated
Aug 19
Waning Crescent
Aug 25
New
Sep 2
First Quarter
Sep 8
Full
Sep 15
Last Quarter

Hourly Weather History & Observations

Time (MDT) Temp. Dew Point Humidity Pressure Visibility Wind Dir Wind Speed Gust Speed Precip Events Conditions
12:56 AM 65.5 °F 46.8 °F 51% 29.77 in 10.0 mi SW 5.8 mph - N/A   Clear
1:56 AM 63.5 °F 46.9 °F 55% 29.76 in 10.0 mi WSW 9.2 mph - N/A   Clear
2:56 AM 61.0 °F 46.8 °F 59% 29.76 in 10.0 mi South 5.8 mph - N/A   Clear
3:56 AM 58.6 °F 46.0 °F 63% 29.75 in 10.0 mi SW 5.8 mph - N/A   Clear
4:56 AM 58.1 °F 45.7 °F 63% 29.75 in 10.0 mi SSW 5.8 mph - N/A   Clear
5:56 AM 57.7 °F 46.0 °F 65% 29.75 in 10.0 mi SSW 2.3 mph - N/A   Clear
6:56 AM 57.0 °F 46.4 °F 68% 29.75 in 10.0 mi WSW 3.5 mph - N/A   Clear
7:56 AM 61.5 °F 45.9 °F 56% 29.75 in 10.0 mi WNW 5.8 mph - N/A   Clear
8:56 AM 68.9 °F 45.3 °F 43% 29.73 in 10.0 mi SW 9.2 mph - N/A   Clear
9:56 AM 75.9 °F 45.0 °F 33% 29.72 in 10.0 mi WSW 12.7 mph - N/A   Clear
10:56 AM 79.5 °F 43.2 °F 27% 29.71 in 10.0 mi WSW 12.7 mph 23.0 mph N/A   Clear
11:30 AM 80.6 °F 42.8 °F 26% 29.79 in 10.0 mi WNW 15.0 mph 19.6 mph N/A   Clear
11:56 AM 81.9 °F 42.4 °F 25% 29.69 in 10.0 mi West 12.7 mph 17.3 mph N/A   Clear
12:56 PM 82.8 °F 38.8 °F 21% 29.69 in 10.0 mi Variable 5.8 mph - N/A   Clear
1:56 PM 83.1 °F 39.4 °F 21% 29.68 in 10.0 mi West 9.2 mph - N/A   Clear
2:56 PM 84.2 °F 36.5 °F 18% 29.65 in 10.0 mi Variable 4.6 mph 16.1 mph N/A   Partly Cloudy
3:56 PM 86.0 °F 35.8 °F 17% 29.64 in 10.0 mi West 9.2 mph 19.6 mph N/A   Clear
4:56 PM 85.8 °F 38.1 °F 18% 29.63 in 10.0 mi West 12.7 mph 21.9 mph N/A   Clear
5:56 PM 85.6 °F 36.0 °F 17% 29.62 in 10.0 mi SW 11.5 mph 17.3 mph N/A   Clear
6:56 PM 84.9 °F 36.9 °F 18% 29.62 in 10.0 mi West 5.8 mph - N/A   Clear
7:56 PM 82.8 °F 38.1 °F 20% 29.62 in 10.0 mi West 4.6 mph - N/A   Clear
8:56 PM 80.6 °F 39.0 °F 23% 29.62 in 10.0 mi NW 11.5 mph 16.1 mph N/A   Mostly Cloudy
9:47 PM 71.6 °F 46.4 °F 41% 29.77 in 10.0 mi SSW 6.9 mph 18.4 mph N/A Rain Light Rain
9:56 PM 72.0 °F 48.4 °F 43% 29.69 in 10.0 mi Variable 6.9 mph 13.8 mph N/A Rain Light Rain Showers
10:07 PM 71.6 °F 46.4 °F 41% 29.77 in 10.0 mi North 9.2 mph - N/A   Mostly Cloudy
10:56 PM 70.0 °F 44.8 °F 40% 29.68 in 10.0 mi NNW 2.3 mph - N/A   Clear
11:56 PM 63.5 °F 49.3 °F 60% 29.70 in 10.0 mi SSE 3.5 mph - N/A   Scattered Clouds